| time (UTC) | temp C | wind direction | speed KPH | gust KPH | rain 1hr cm | rain 24hr cm | rain mn cm | humidity % | barometer mb |
| 20260505041037 | -17 | 0.0 | 0.0 | 0.00 | 0.00 | 0.00 | |||
| 20260505040036 | -17 | 0.0 | 0.0 | 0.00 | 0.00 | 0.00 | |||
| 20260505035036 | -17 | 0.0 | 0.0 | 0.00 | 0.00 | 0.00 | |||
| 20260505034556 | -17 | 0.0 | 0.0 | 0.00 | 0.00 | 0.00 | |||
| 20260505033537 | -17 | 0.0 | 0.0 | 0.00 | 0.00 | 0.00 | |||
| 20260505032536 | -17 | 0.0 | 0.0 | 0.00 | 0.00 | 0.00 | |||
| 20260505031556 | -17 | 0.0 | 0.0 | 0.00 | 0.00 | 0.00 | |||
| 20260505030559 | -17 | 0.0 | 0.0 | 0.00 | 0.00 | 0.00 | |||
| 20260505025535 | -17 | 0.0 | 0.0 | 0.00 | 0.00 | 0.00 | |||
| 20260505024538 | -17 | 0.0 | 0.0 | 0.00 | 0.00 | 0.00 | |||
| 20260505023537 | -17 | 0.0 | 0.0 | 0.00 | 0.00 | 0.00 | |||
| 20260505022617 | -17 | 0.0 | 0.0 | 0.00 | 0.00 | 0.00 | |||
| 20260505021538 | -17 | 0.0 | 0.0 | 0.00 | 0.00 | 0.00 | |||
| 20260505020536 | -17 | 0.0 | 0.0 | 0.00 | 0.00 | 0.00 | |||
| 20260505015535 | -17 | 0.0 | 0.0 | 0.00 | 0.00 | 0.00 | |||
| 20260505014536 | -17 | 0.0 | 0.0 | 0.00 | 0.00 | 0.00 | |||
| 20260505013556 | -17 | 0.0 | 0.0 | 0.00 | 0.00 | 0.00 | |||
| 20260505013038 | -17 | 0.0 | 0.0 | 0.00 | 0.00 | 0.00 | |||
| 20260505012037 | -17 | 0.0 | 0.0 | 0.00 | 0.00 | 0.00 | |||
| 20260505011039 | -17 | 0.0 | 0.0 | 0.00 | 0.00 | 0.00 | |||
| 20260505010038 | -17 | 0.0 | 0.0 | 0.00 | 0.00 | 0.00 | |||
| 20260505005543 | 2 | 0 | 1.6 | 0.0 | 0.00 | 0.00 | 0.00 | 68 | |
| 20260505005040 | 2 | 0 | 4.8 | 12.9 | 0.00 | 0.00 | 0.00 | 68 | |
| 20260505004039 | 2 | 0 | 6.4 | 16.1 | 0.00 | 0.00 | 0.00 | 67 | |
| 20260505003059 | 2 | 0 | 4.8 | 12.9 | 0.00 | 0.00 | 0.00 | 67 | |
| 20260505002040 | 2 | 0 | 3.2 | 9.7 | 0.00 | 0.00 | 0.00 | 67 | |
| 20260505001101 | 2 | 0 | 6.4 | 14.5 | 0.00 | 0.00 | 0.00 | 66 | |
| 20260505000041 | 2 | 0 | 8.0 | 16.1 | 0.00 | 0.00 | 0.00 | 66 | |
| 20260504235041 | 2 | 0 | 3.2 | 14.5 | 0.00 | 0.00 | 0.00 | 68 | |
| 20260504234038 | 2 | 0 | 4.8 | 16.1 | 0.00 | 0.00 | 0.00 | 69 | |
| 20260504233040 | 2 | 0 | 4.8 | 16.1 | 0.00 | 0.00 | 0.00 | 68 | |
| 20260504232041 | 2 | 0 | 6.4 | 14.5 | 0.00 | 0.00 | 0.00 | 69 | |
| 20260504231039 | 2 | 0 | 4.8 | 16.1 | 0.00 | 0.00 | 0.00 | 69 | |
| 20260504230101 | 2 | 0 | 8.0 | 14.5 | 0.00 | 0.00 | 0.00 | 69 | |
| 20260504225039 | 2 | 0 | 4.8 | 16.1 | 0.00 | 0.00 | 0.00 | 70 | |
| 20260504224039 | 2 | 0 | 4.8 | 14.5 | 0.00 | 0.00 | 0.00 | 70 | |
| 20260504223038 | 2 | 0 | 6.4 | 16.1 | 0.00 | 0.00 | 0.00 | 69 | |
| 20260504222040 | 2 | 0 | 6.4 | 19.3 | 0.00 | 0.00 | 0.00 | 70 | |
| 20260504221039 | 2 | 0 | 9.7 | 17.7 | 0.00 | 0.00 | 0.00 | 70 | |
| 20260504220040 | 2 | 0 | 8.0 | 16.1 | 0.00 | 0.00 | 0.00 | 70 | |
| 20260504215100 | 2 | 0 | 6.4 | 16.1 | 0.00 | 0.00 | 0.00 | 71 | |
| 20260504214041 | 2 | 0 | 11.3 | 16.1 | 0.00 | 0.00 | 0.00 | 70 | |
| 20260504213101 | 3 | 0 | 9.7 | 16.1 | 0.00 | 0.00 | 0.00 | 70 | |
| 20260504212042 | 3 | 0 | 6.4 | 16.1 | 0.00 | 0.00 | 0.00 | 71 | |
| 20260504211039 | 2 | 0 | 9.7 | 14.5 | 0.00 | 0.00 | 0.00 | 74 | |
| 20260504210041 | 2 | 0 | 6.4 | 17.7 | 0.00 | 0.00 | 0.00 | 77 | |
| 20260504205059 | 2 | 0 | 8.0 | 17.7 | 0.00 | 0.00 | 0.00 | 76 | |
| 20260504204041 | 3 | 0 | 8.0 | 17.7 | 0.00 | 0.00 | 0.00 | 77 | |
| 20260504203038 | 3 | 0 | 6.4 | 16.1 | 0.00 | 0.00 | 0.00 | 78 | |
| 20260504202041 | 3 | 0 | 8.0 | 16.1 | 0.00 | 0.00 | 0.00 | 75 | |
| 20260504201040 | 3 | 0 | 9.7 | 19.3 | 0.00 | 0.00 | 0.00 | 73 | |
| 20260504200041 | 3 | 0 | 8.0 | 17.7 | 0.00 | 0.00 | 0.00 | 74 | |
| 20260504195039 | 3 | 0 | 8.0 | 16.1 | 0.00 | 0.00 | 0.00 | 72 | |
| 20260504194040 | 3 | 0 | 9.7 | 17.7 | 0.00 | 0.00 | 0.00 | 72 | |
| 20260504193039 | 3 | 0 | 6.4 | 16.1 | 0.00 | 0.00 | 0.00 | 72 | |
| 20260504192041 | 3 | 0 | 11.3 | 19.3 | 0.00 | 0.00 | 0.00 | 71 | |
| 20260504191100 | 3 | 0 | 9.7 | 17.7 | 0.00 | 0.00 | 0.00 | 71 | |
| 20260504185042 | 3 | 0 | 12.9 | 19.3 | 0.00 | 0.00 | 0.00 | 66 | |
| 20260504184040 | 3 | 0 | 9.7 | 17.7 | 0.00 | 0.00 | 0.00 | 66 | |
| 20260504183040 | 3 | 0 | 11.3 | 19.3 | 0.00 | 0.00 | 0.00 | 67 | |
| 20260504182121 | 3 | 0 | 11.3 | 19.3 | 0.00 | 0.00 | 0.00 | 66 | |
| 20260504181038 | 3 | 0 | 6.4 | 16.1 | 0.00 | 0.00 | 0.00 | 68 | |
| 20260504180040 | 3 | 0 | 11.3 | 19.3 | 0.00 | 0.00 | 0.00 | 68 | |
| 20260504175120 | 3 | 0 | 9.7 | 17.7 | 0.00 | 0.00 | 0.00 | 73 | |
| 20260504174102 | 3 | 0 | 8.0 | 16.1 | 0.00 | 0.00 | 0.00 | 77 | |
| 20260504173040 | 3 | 0 | 4.8 | 14.5 | 0.00 | 0.00 | 0.00 | 76 | |
| 20260504172040 | 3 | 0 | 9.7 | 16.1 | 0.00 | 0.00 | 0.00 | 72 | |
| 20260504171041 | 4 | 0 | 8.0 | 17.7 | 0.00 | 0.00 | 0.00 | 72 | |
| 20260504150537 | -17 | 0.0 | 0.0 | 0.00 | 0.00 | 0.00 | |||
| 20260504141038 | -17 | 0.0 | 0.0 | 0.00 | 0.00 | 0.00 | |||
| 20260504100537 | -17 | 0.0 | 0.0 | 0.00 | 0.00 | 0.00 | |||
| 20260504081036 | -17 | 0.0 | 0.0 | 0.00 | 0.00 | 0.00 |